This is the latest recevied weather packets stored in our database for station/object KG4LKY-5. If no packets are shown the sender has not sent any weather packets the latest 10 day(s).
| Time | Temp. | Humidity | Pressure | Rain* | Wind** | Luminosity | Snow |
|---|---|---|---|---|---|---|---|
| 1777992748 | 20° C | 45% | 1014.2 hPa | 0 mm | - | - | - |
| 1777992447 | 20.56° C | 43% | 1014.2 hPa | 0 mm | - | - | - |
| 1777992147 | 20.56° C | 44% | 1014.2 hPa | 0 mm | - | - | - |
| 1777991546 | 20° C | 44% | 1014.3 hPa | 0 mm | - | - | - |
| 1777991246 | 20° C | 46% | 1014.2 hPa | 0 mm | - | - | - |
| 1777990945 | 19.44° C | 50% | 1014.2 hPa | 0 mm | - | - | - |
| 1777990645 | 19.44° C | 47% | 1014.2 hPa | 0 mm | - | - | - |
| 1777990345 | 18.89° C | 48% | 1014.3 hPa | 0 mm | - | - | - |
| 1777990045 | 18.89° C | 49% | 1014.2 hPa | 0 mm | - | - | - |
| 1777989744 | 18.89° C | 51% | 1014.2 hPa | 0 mm | - | - | - |
| 1777989442 | 18.33° C | 48% | 1014.1 hPa | 0 mm | - | - | - |
| 1777988842 | 18.89° C | 51% | 1014.1 hPa | 0 mm | - | - | - |
| 1777988542 | 18.89° C | 51% | 1014.1 hPa | 0 mm | - | - | - |
| 1777987340 | 17.78° C | 51% | 1014.2 hPa | 0 mm | - | - | - |
| 1777986738 | 17.78° C | 51% | 1014.3 hPa | 0 mm | - | - | - |
| 1777986438 | 18.33° C | 50% | 1014.2 hPa | 0 mm | - | - | - |
| 1777986138 | 18.33° C | 52% | 1014.2 hPa | 0 mm | - | - | - |
| 1777985837 | 17.78° C | 51% | 1014 hPa | 0 mm | - | - | - |
| 1777985537 | 17.78° C | 54% | 1014 hPa | 0 mm | - | - | - |
| 1777985237 | 16.67° C | 55% | 1014 hPa | 0 mm | - | - | - |
| 1777984937 | 17.22° C | 54% | 1013.9 hPa | 0 mm | - | - | - |
| 1777984636 | 17.22° C | 55% | 1013.8 hPa | 0 mm | - | - | - |
| 1777984336 | 16.67° C | 57% | 1013.7 hPa | 0 mm | - | - | - |
| 1777983735 | 16.67° C | 58% | 1013.6 hPa | 0 mm | - | - | - |
| 1777982835 | 16.67° C | 58% | 1013.7 hPa | 0 mm | - | - | - |
* Rain since midnight (hover to see other rain measurements)
** Current wind speed in m/s (hover to see current wind gust speed)